1486386000.29,62222,11.31,72738.8,-1.41,-34.13,-36.79,0,*5C
1486386001.53,62223,11.31,72736.0,-1.39,-33.03,-35.71,0,*5F
1486386002.79,62224,11.31,72736.8,-1.41,-33.09,-35.83,0,*50
1486386004.0,62225,11.31,72736.8,-1.41,-33.21,-35.77,0,*50
1486386005.26,62226,11.31,72738.3,-1.41,-33.09,-35.83,0,*52
1486386006.5,62227,11.31,72738.3,-1.41,-33.21,-35.95,0,*5E
1486386007.73,62228,11.31,72738.5,-1.41,-33.95,-36.79,0,*5F
1486386009.01,62229,11.31,72738.5,-1.43,-34.19,-36.91,0,*59
1486386010.23,62230,11.31,72738.5,-1.45,-34.07,-36.85,0,*5D
1486386011.51,62231,11.31,72736.3,-1.43,-34.01,-36.79,0,*5F
1486386012.75,62232,11.31,72736.0,-1.45,-33.31,-36.07,0,*57
1486386013.97,62233,11.31,72738.3,-1.45,-33.15,-35.89,0,*55
1486386015.18,62234,11.31,72736.3,-1.45,-33.67,-36.31,0,*57
1486386016.42,62235,11.31,72738.8,-1.49,-33.83,-36.55,0,*52
1486386017.66,62236,11.31,72736.0,-1.47,-34.07,-36.85,0,*59
1486386018.93,62237,11.31,72736.8,-1.49,-33.73,-36.31,0,*5D
1486386020.18,62238,11.31,72736.0,-1.47,-33.67,-36.37,0,*5F
1486386021.47,62239,11.31,72734.8,-1.49,-33.49,-36.13,0,*5A
1486386022.72,62240,11.31,72734.8,-1.49,-33.31,-36.07,0,*5E
1486386024.01,62241,11.31,72738.5,-1.47,-33.49,-36.13,0,*5B
1486386025.3,62242,11.31,72738.3,-1.49,-33.31,-35.95,0,*54
1486386026.59,62243,11.31,72732.3,-1.49,-33.31,-35.95,0,*55
1486386027.88,62244,11.31,72738.5,-1.49,-33.31,-35.95,0,*52
1486386029.14,62245,11.31,72734.5,-1.49,-33.49,-36.07,0,*54
1486386030.41,62246,11.31,72734.3,-1.49,-33.31,-35.89,0,*5D
1486386031.65,62247,11.31,72736.3,-1.51,-33.43,-36.01,0,*53
1486386032.89,62248,11.31,72736.8,-1.51,-33.37,-35.95,0,*51
1486386034.15,62249,11.31,72732.3,-1.51,-33.27,-35.83,0,*56
1486386035.41,62250,11.31,72736.8,-1.51,-33.27,-35.83,0,*5E
1486386036.63,62251,11.31,72738.3,-1.51,-33.21,-35.77,0,*52
1486386037.84,62252,11.31,72736.8,-1.51,-33.21,-36.01,0,*53
1486386039.11,62253,11.31,72738.3,-1.51,-33.27,-35.95,0,*5A
1486386040.33,62254,11.31,72738.8,-1.51,-33.61,-36.19,0,*58
1486386041.62,62255,11.31,72738.5,-1.53,-34.01,-36.61,0,*55
1486386042.85,62256,11.31,72738.3,-1.51,-34.35,-36.97,0,*5A
1486386044.14,62257,11.31,72738.3,-1.53,-34.31,-37.09,0,*5B
1486386045.4,62258,11.31,72742.0,-1.53,-34.13,-36.79,0,*52
1486386046.64,62259,11.31,72738.8,-1.55,-34.07,-36.79,0,*50
1486386047.9,62260,11.31,72738.0,-1.59,-34.01,-36.49,0,*53
1486386049.16,62261,11.31,72738.3,-1.55,-34.19,-36.79,0,*54
1486386050.4,62262,11.31,72734.8,-1.59,-33.95,-36.37,0,*52
1486386051.64,62263,11.31,72736.5,-1.59,-33.31,-35.71,0,*5C
1486386052.87,62264,11.31,72738.8,-1.59,-33.27,-35.71,0,*5C
1486386054.11,62265,11.31,72732.8,-1.59,-33.77,-36.19,0,*55
1486386055.36,62266,11.31,72734.8,-1.59,-33.49,-36.01,0,*52
1486386056.59,62267,11.31,72734.8,-1.59,-33.61,-36.19,0,*50
1486386057.84,62268,11.31,72734.0,-1.59,-33.43,-36.01,0,*56
1486386059.1,62269,11.31,72736.0,-1.61,-33.67,-36.25,0,*5C
1486386060.4,62270,11.31,72740.8,-1.61,-33.73,-36.25,0,*51
1486386061.63,62271,11.31,72738.3,-1.63,-33.37,-35.89,0,*57
1486386062.88,62272,11.31,72738.3,-1.61,-33.37,-35.77,0,*57
1486386064.15,62273,11.31,72738.5,-1.61,-33.31,-35.77,0,*50
1486386065.38,62274,11.31,72736.5,-1.61,-33.15,-35.71,0,*57
1486386066.65,62275,11.31,72732.5,-1.61,-33.31,-35.89,0,*57
1486386067.93,62276,11.31,72732.8,-1.63,-33.49,-35.95,0,*54
1486386069.2,62277,11.31,72738.3,-1.61,-33.67,-36.25,0,*53
1486386070.46,62278,11.31,72736.8,-1.61,-33.55,-36.13,0,*58
1486386071.74,62279,11.31,72738.3,-1.61,-33.49,-36.13,0,*54
1486386072.98,62280,11.31,72734.8,-1.63,-33.55,-36.25,0,*58
1486386074.25,62281,11.31,72736.0,-1.61,-33.67,-36.25,0,*5A
1486386075.49,62282,11.31,72736.8,-1.63,-33.67,-36.25,0,*5B
1486386076.7,62283,11.31,72736.3,-1.63,-33.55,-36.07,0,*5B
1486386077.98,62284,11.31,72738.3,-1.63,-33.49,-35.95,0,*59
1486386079.22,62285,11.31,72736.5,-1.63,-33.67,-36.25,0,*5C
1486386080.43,62286,11.31,72736.5,-1.63,-34.13,-36.73,0,*58
1486386081.71,62287,11.31,72734.3,-1.65,-33.89,-36.37,0,*5B
1486386082.95,62288,11.31,72738.3,-1.65,-33.95,-36.55,0,*5D
1486386084.17,62289,11.31,72738.5,-1.67,-33.95,-36.55,0,*5E
1486386085.43,62290,11.31,72736.3,-1.65,-34.31,-36.97,0,*53
1486386086.68,62291,11.31,72738.5,-1.67,-34.01,-36.55,0,*5D
1486386087.9,62292,11.31,72736.0,-1.67,-34.13,-36.55,0,*5D
1486386089.12,62293,11.31,72734.8,-1.67,-34.13,-36.55,0,*5C
1486386090.32,62294,11.31,72736.3,-1.67,-34.25,-36.85,0,*53
1486386091.56,62295,11.31,72736.8,-1.67,-34.25,-36.61,0,*58
1486386092.8,62296,11.31,72736.3,-1.69,-34.25,-36.67,0,*53
1486386094.04,62297,11.31,72736.5,-1.71,-34.31,-36.73,0,*5B
1486386095.28,62298,11.31,72736.5,-1.71,-34.47,-36.91,0,*59
1486386096.5,62299,11.31,72738.5,-1.71,-34.59,-37.03,0,*5D
1486386097.75,62300,11.31,72736.8,-1.73,-35.17,-37.81,0,*5F
1486386099.01,62301,11.31,72734.8,-1.73,-35.47,-37.99,0,*52
1486386100.28,62302,11.31,72736.8,-1.73,-35.01,-37.63,0,*56
1486386101.52,62303,11.31,72738.0,-1.75,-35.01,-37.51,0,*50
1486386102.76,62304,11.31,72734.0,-1.77,-34.71,-37.45,0,*56
1486386104.03,62305,11.31,72738.3,-1.77,-34.89,-37.51,0,*55
1486386105.26,62306,11.31,72732.3,-1.77,-34.89,-37.45,0,*53
1486386106.47,62307,11.31,72738.3,-1.81,-34.47,-36.85,0,*54
1486386107.73,62308,11.31,72736.3,-1.81,-34.65,-37.21,0,*54
1486386108.99,62309,11.31,72738.5,-1.81,-34.83,-37.39,0,*54
1486386110.28,62310,11.31,72736.3,-1.83,-34.83,-37.21,0,*57
1486386111.57,62311,11.31,72738.3,-1.83,-34.83,-37.39,0,*5F
1486386112.84,62312,11.31,72734.3,-1.83,-34.95,-37.57,0,*53
1486386114.07,62313,11.31,72736.0,-1.83,-34.77,-37.27,0,*59
1486386115.31,62314,11.31,72734.3,-1.85,-34.65,-37.15,0,*5A
1486386116.54,62315,11.31,72736.0,-1.85,-34.89,-37.51,0,*59
1486386117.79,62316,11.31,72736.0,-1.85,-35.41,-37.99,0,*5B
1486386119.04,62317,11.31,72736.3,-1.89,-35.23,-37.69,0,*5D
1486386120.27,62318,11.31,72736.0,-1.87,-35.01,-37.45,0,*52
1486386121.53,62319,11.31,72734.0,-1.89,-35.07,-37.69,0,*55
1486386122.73,62320,11.31,72732.0,-1.89,-35.13,-37.57,0,*57
1486386124.02,62321,11.31,72734.3,-1.91,-34.83,-37.39,0,*5F
1486386125.22,62322,11.31,72736.3,-1.93,-35.13,-37.45,0,*5D
1486386126.45,62323,11.31,72736.8,-1.93,-34.83,-37.27,0,*50
1486386127.68,62324,11.31,72736.3,-1.91,-35.01,-37.57,0,*59
1486386128.89,62325,11.31,72734.0,-1.93,-35.13,-37.57,0,*59
1486386130.09,62326,11.31,72734.8,-1.93,-35.01,-37.45,0,*5A
1486386131.3,62327,11.31,72734.3,-1.93,-35.01,-37.45,0,*5B
1486386132.53,62328,11.31,72738.0,-1.93,-34.83,-37.27,0,*5B
1486386133.78,62329,11.31,72736.3,-1.95,-35.17,-37.51,0,*51
1486386135.04,62330,11.31,72732.5,-1.97,-35.23,-37.81,0,*51
1486386136.24,62331,11.31,72738.0,-1.97,-35.59,-38.17,0,*5D
1486386137.44,62332,11.31,72736.3,-1.97,-35.77,-38.17,0,*52
1486386138.73,62333,11.31,72736.5,-1.99,-35.83,-38.29,0,*5B
1486386139.98,62334,11.31,72738.3,-1.99,-35.77,-38.11,0,*5C
1486386141.24,62335,11.31,72738.5,-1.99,-35.41,-37.87,0,*58
1486386142.47,62336,11.31,72736.0,-2.01,-35.13,-37.51,0,*55
1486386143.71,62337,11.31,72734.3,-2.01,-35.77,-38.23,0,*5C
1486386144.9,62338,11.31,72734.5,-2.01,-35.59,-38.05,0,*5B
1486386146.14,62339,11.31,72738.5,-2.05,-35.29,-37.81,0,*5A
1486386147.37,62340,11.31,72736.0,-2.07,-35.13,-37.57,0,*54
1486386148.63,62341,11.31,72738.8,-2.07,-35.35,-37.75,0,*51
1486386149.88,62342,11.38,72736.5,-2.07,-35.65,-38.17,0,*5C
1486386151.14,62343,11.31,72736.5,-2.07,-35.71,-38.11,0,*5E
1486386152.4,62344,11.31,72738.5,-2.09,-35.95,-38.23,0,*5C
1486386153.68,62345,11.31,72734.3,-2.11,-35.41,-37.81,0,*5A
1486386154.91,62346,11.31,72738.8,-2.11,-35.89,-38.35,0,*5D
1486386156.15,62347,11.31,72732.5,-2.11,-35.89,-38.35,0,*5C
1486386157.39,62348,11.38,72738.8,-2.13,-35.65,-38.05,0,*50
1486386158.68,62349,11.31,72738.3,-2.13,-34.95,-37.21,0,*56
1486386159.89,62350,11.38,72738.5,-2.15,-34.59,-36.85,0,*57
1486386161.13,62351,11.31,72734.8,-2.15,-34.53,-36.85,0,*5C
1486386162.39,62352,11.31,72732.0,-2.13,-34.53,-36.73,0,*50
1486386163.61,62353,11.38,72736.0,-2.15,-34.59,-36.85,0,*54
1486386164.82,62354,11.31,72738.0,-2.15,-34.77,-36.97,0,*5C
1486386166.04,62355,11.31,72734.0,-2.15,-34.71,-36.97,0,*5B
1486386167.25,62356,11.31,72738.5,-2.15,-34.59,-36.97,0,*52
1486386168.54,62357,11.31,72732.3,-2.13,-34.53,-36.79,0,*5F
1486386169.75,62358,11.31,72736.8,-2.15,-34.71,-36.85,0,*55
1486386171.04,62359,11.38,72736.5,-2.13,-34.65,-36.91,0,*52
1486386172.3,62360,11.31,72734.0,-2.13,-34.71,-36.79,0,*5B
1486386173.51,62361,11.31,72736.3,-2.15,-34.89,-37.15,0,*50
1486386174.73,62362,11.31,72734.8,-2.13,-35.13,-37.33,0,*53
1486386175.98,62363,11.31,72732.3,-2.15,-35.01,-37.39,0,*5D
1486386177.25,62364,11.31,72732.8,-2.13,-35.65,-37.93,0,*5E
1486386178.48,62365,11.31,72734.5,-2.15,-35.71,-37.93,0,*5C
1486386179.69,62366,11.31,72732.8,-2.19,-35.71,-38.17,0,*50
1486386180.89,62367,11.31,72732.5,-2.19,-35.77,-38.17,0,*57
1486386182.12,62368,11.31,72736.5,-2.19,-35.59,-37.99,0,*5D
1486386183.35,62369,11.38,72738.8,-2.19,-35.59,-37.99,0,*5C
1486386184.58,62370,11.31,72732.5,-2.19,-35.59,-37.99,0,*54
1486386185.85,62371,11.38,72736.0,-2.21,-35.53,-37.69,0,*5B
1486386187.05,62372,11.31,72732.8,-2.19,-35.77,-38.17,0,*53
1486386188.33,62373,11.31,72734.5,-2.21,-35.53,-37.81,0,*5F
1486386189.59,62374,11.31,72738.5,-2.23,-35.41,-37.51,0,*54
1486386190.82,62375,11.31,72736.5,-2.23,-35.41,-37.33,0,*51
1486386192.08,62376,11.31,72732.8,-2.21,-34.77,-36.91,0,*5D
1486386193.28,62377,11.31,72734.0,-2.23,-35.13,-37.27,0,*51
1486386194.55,62378,11.31,72732.5,-2.23,-34.83,-36.91,0,*5A
1486386195.79,62379,11.38,72738.8,-2.23,-34.71,-36.79,0,*50
1486386197.04,62380,11.38,72738.8,-2.23,-34.53,-36.55,0,*58
1486386198.28,62381,11.38,72738.0,-2.21,-34.59,-36.55,0,*51
1486386199.53,62382,11.31,72732.8,-2.23,-34.65,-36.73,0,*5B
1486386200.78,62383,11.31,72734.5,-2.21,-34.47,-36.55,0,*5C
1486386202.0,62384,11.31,72732.8,-2.23,-34.47,-36.55,0,*59
1486386203.27,62385,11.38,72736.5,-2.21,-34.47,-36.49,0,*57
1486386204.52,62386,11.38,72738.5,-2.21,-34.41,-36.37,0,*5B
1486386205.79,62387,11.38,72738.5,-2.21,-34.47,-36.49,0,*55
1486386207.03,62388,11.38,72738.5,-2.21,-34.59,-36.73,0,*5C
1486386208.24,62389,11.31,72732.3,-2.19,-34.77,-36.85,0,*53
1486386209.45,62390,11.38,72738.3,-2.23,-34.77,-36.85,0,*52
1486386210.71,62391,11.31,72738.0,-2.21,-35.17,-37.21,0,*59
1486386211.96,62392,11.31,72734.8,-2.19,-35.35,-37.39,0,*58
1486386213.22,62393,11.31,72736.3,-2.21,-35.95,-38.05,0,*58
1486386214.46,62394,11.31,72734.8,-2.23,-35.83,-37.87,0,*5F
1486386215.69,62395,11.38,72738.5,-2.23,-35.41,-37.33,0,*5F
1486386216.89,62396,11.31,72736.5,-2.23,-35.47,-37.45,0,*5B
1486386218.15,62397,11.38,72736.5,-2.23,-35.07,-37.09,0,*56
1486386219.39,62398,11.31,72736.5,-2.23,-34.89,-36.91,0,*5E
1486386220.62,62399,11.31,72736.5,-2.23,-34.89,-36.91,0,*5F
1486386221.86,62400,11.31,72736.5,-2.27,-35.07,-37.15,0,*56
1486386223.07,62401,11.31,72736.0,-2.27,-35.47,-37.33,0,*57
1486386224.33,62402,11.38,72736.5,-2.29,-35.17,-37.21,0,*5C
1486386225.56,62403,11.38,72734.3,-2.27,-35.07,-36.97,0,*5E
1486386226.8,62404,11.31,72732.8,-2.27,-35.17,-37.21,0,*54
1486386228.06,62405,11.38,72738.8,-2.27,-35.23,-37.09,0,*58
1486386229.27,62406,11.31,72734.5,-2.27,-35.01,-36.97,0,*5D
1486386230.54,62407,11.31,72732.5,-2.27,-35.07,-37.09,0,*5C
1486386231.77,62408,11.38,72738.0,-2.27,-35.07,-36.97,0,*55
1486386233.01,62409,11.31,72732.5,-2.27,-35.01,-36.91,0,*54
1486386234.24,62410,11.31,72734.5,-2.29,-35.13,-36.97,0,*57
1486386235.48,62411,11.31,72734.5,-2.29,-35.13,-37.15,0,*5D
1486386236.74,62412,11.38,72738.8,-2.29,-35.07,-37.03,0,*5C
1486386238.03,62413,11.38,72736.5,-2.29,-34.95,-36.79,0,*5B
1486386239.31,62414,11.31,72736.0,-2.29,-35.53,-37.39,0,*52
1486386240.57,62415,11.38,72738.0,-2.29,-35.89,-37.81,0,*57
1486386241.85,62416,11.38,72736.0,-2.29,-35.65,-37.39,0,*55
1486386243.13,62417,11.31,72736.0,-2.29,-35.65,-37.39,0,*54
1486386244.39,62418,11.38,72738.8,-2.29,-35.71,-37.63,0,*51
1486386245.64,62419,11.31,72736.5,-2.31,-35.89,-37.63,0,*5E
1486386246.86,62420,11.31,72736.5,-2.33,-35.59,-37.45,0,*5F
1486386248.09,62421,11.38,72738.8,-2.33,-35.59,-37.45,0,*5E
1486386249.32,62422,11.38,72736.5,-2.33,-35.71,-37.45,0,*57
1486386250.61,62423,11.38,72738.8,-2.33,-35.35,-37.39,0,*5D
1486386251.87,62424,11.38,72738.0,-2.33,-35.59,-37.39,0,*50
1486386253.11,62425,11.31,72738.3,-2.31,-35.47,-37.39,0,*5C
1486386254.36,62426,11.31,72736.8,-2.33,-35.41,-37.27,0,*54
1486386255.58,62427,11.31,72738.0,-2.35,-35.53,-37.27,0,*50
1486386256.83,62428,11.31,72738.5,-2.35,-35.77,-37.63,0,*59
1486386258.07,62429,11.38,72742.0,-2.33,-36.31,-38.35,0,*53
1486386259.33,62430,11.38,72736.5,-2.37,-36.37,-38.43,0,*58
1486386260.57,62431,11.31,72736.0,-2.37,-36.55,-38.43,0,*5D
1486386261.84,62432,11.38,72736.8,-2.37,-36.55,-38.29,0,*52
1486386263.13,62433,11.38,72736.0,-2.37,-36.37,-38.29,0,*57
1486386264.37,62434,11.38,72736.0,-2.39,-36.25,-38.17,0,*50
1486386265.61,62435,11.31,72736.0,-2.39,-36.25,-38.17,0,*51
1486386266.85,62436,11.38,72736.5,-2.39,-36.19,-38.11,0,*5B
1486386268.06,62437,11.38,72740.5,-2.43,-36.31,-38.05,0,*58
1486386269.29,62438,11.31,72734.3,-2.41,-35.89,-37.57,0,*5D
1486386270.55,62439,11.31,72734.3,-2.41,-35.83,-37.75,0,*56
1486386271.76,62440,11.38,72736.0,-2.43,-35.71,-37.45,0,*54
1486386272.99,62441,11.38,72738.0,-2.43,-35.29,-36.91,0,*50
1486386274.25,62442,11.38,72738.0,-2.41,-35.13,-36.79,0,*5E
1486386275.53,62443,11.38,72736.3,-2.41,-35.07,-36.79,0,*5A
1486386276.78,62444,11.38,72738.3,-2.41,-35.13,-36.79,0,*58
1486386278.02,62445,11.38,72736.0,-2.41,-35.29,-37.15,0,*5B
1486386279.26,62446,11.38,72738.8,-2.41,-35.29,-36.97,0,*53
1486386280.54,62447,11.31,72734.3,-2.41,-35.07,-36.79,0,*5E
1486386281.81,62448,11.38,72736.5,-2.41,-34.95,-36.67,0,*54
1486386283.04,62449,11.38,72738.0,-2.39,-35.23,-36.85,0,*5A
1486386284.29,62450,11.38,72736.5,-2.39,-35.23,-36.67,0,*5E
1486386285.56,62451,11.38,72738.5,-2.41,-34.95,-36.55,0,*5D
1486386286.83,62452,11.38,72738.5,-2.41,-34.95,-36.55,0,*5E
1486386288.09,62453,11.38,72736.5,-2.39,-35.07,-36.79,0,*54
1486386289.34,62454,11.38,72736.3,-2.39,-35.07,-36.67,0,*5C
1486386290.55,62455,11.38,72736.5,-2.39,-35.13,-36.85,0,*54
1486386291.78,62456,11.38,72738.0,-2.39,-35.23,-36.85,0,*54
1486386293.05,62457,11.38,72738.3,-2.39,-35.07,-36.79,0,*50
1486386294.3,62458,11.31,72734.5,-2.37,-35.01,-36.55,0,*59
1486386295.55,62459,11.38,72736.0,-2.37,-35.01,-36.55,0,*58
1486386296.82,62460,11.31,72732.5,-2.37,-35.01,-36.49,0,*5F
1486386298.08,62461,11.38,72738.8,-2.37,-35.01,-36.61,0,*54
1486386299.33,62462,11.38,72736.5,-2.35,-34.95,-36.55,0,*5E
1486386300.57,62463,11.38,72738.5,-2.37,-35.17,-36.73,0,*52
1486386301.8,62464,11.38,72736.0,-2.35,-35.29,-36.91,0,*56
1486386303.04,62465,11.38,72736.8,-2.35,-35.23,-36.73,0,*51
1486386304.29,62466,11.38,72738.8,-2.35,-35.41,-37.09,0,*5A
1486386305.51,62467,11.38,72738.8,-2.35,-35.89,-37.57,0,*54
1486386306.77,62468,11.38,72738.5,-2.35,-36.13,-37.63,0,*5C
1486386308.02,62469,11.38,72740.3,-2.37,-36.01,-37.69,0,*56
1486386309.28,62470,11.38,72738.8,-2.37,-35.83,-37.45,0,*59
1486386310.54,62471,11.38,72740.0,-2.35,-36.13,-37.69,0,*5E
1486386311.77,62472,11.38,72734.8,-2.39,-36.01,-37.69,0,*52
1486386313.04,62473,11.38,72738.5,-2.39,-35.83,-37.39,0,*5F
1486386314.33,62474,11.38,72736.3,-2.41,-35.83,-37.39,0,*57
1486386315.57,62475,11.38,72738.3,-2.39,-35.89,-37.51,0,*5D
1486386316.84,62476,11.38,72738.0,-2.39,-35.83,-37.39,0,*5A
1486386318.1,62477,11.38,72736.8,-2.41,-36.01,-37.51,0,*53
1486386319.34,62478,11.38,72736.0,-2.39,-35.89,-37.51,0,*50
1486386320.63,62479,11.38,72738.0,-2.41,-35.83,-37.21,0,*53
1486386321.88,62480,11.38,72736.5,-2.41,-35.29,-36.79,0,*59
1486386323.1,62481,11.38,72738.3,-2.39,-35.29,-36.85,0,*54
1486386324.32,62482,11.38,72738.0,-2.39,-35.29,-36.67,0,*5B
1486386325.56,62483,11.38,72736.8,-2.39,-34.95,-36.43,0,*5A
1486386326.8,62484,11.38,72738.8,-2.37,-34.89,-36.31,0,*5B
1486386328.07,62485,11.38,72736.3,-2.37,-34.83,-36.31,0,*50
1486386329.32,62486,11.38,72736.5,-2.37,-35.01,-36.55,0,*5A
1486386330.58,62487,11.38,72738.5,-2.35,-34.65,-36.13,0,*58
1486386331.85,62488,11.38,72736.3,-2.37,-35.01,-36.37,0,*50
1486386333.09,62489,11.38,72734.5,-2.35,-34.77,-36.25,0,*50
1486386334.33,62490,11.38,72738.3,-2.35,-34.83,-36.31,0,*56
1486386335.57,62491,11.38,72738.5,-2.35,-34.83,-36.43,0,*52
1486386336.84,62492,11.38,72738.0,-2.33,-34.95,-36.31,0,*55
1486386338.11,62493,11.38,72736.0,-2.33,-34.83,-36.31,0,*53
1486386339.37,62494,11.38,72736.0,-2.33,-35.13,-36.49,0,*53
1486386340.64,62495,11.38,72738.0,-2.33,-34.95,-36.31,0,*52
1486386341.93,62496,11.38,72736.5,-2.33,-34.95,-36.25,0,*54
1486386343.2,62497,11.38,72738.8,-2.33,-34.95,-36.31,0,*50
1486386344.42,62498,11.38,72738.3,-2.31,-34.77,-36.19,0,*5B
1486386345.69,62499,11.38,72738.0,-2.31,-34.95,-36.25,0,*59
1486386346.93,62500,11.38,72740.5,-2.31,-34.89,-36.25,0,*55
1486386348.17,62501,11.38,72736.8,-2.31,-34.89,-36.25,0,*54
1486386349.41,62502,11.38,72738.5,-2.31,-35.17,-36.61,0,*51
1486386350.67,62503,11.38,72736.8,-2.31,-35.07,-36.37,0,*52
1486386351.94,62504,11.38,72738.0,-2.31,-34.95,-36.37,0,*5F
1486386353.15,62505,11.38,72736.0,-2.31,-35.13,-36.43,0,*52
1486386354.43,62506,11.38,72738.3,-2.29,-35.07,-36.37,0,*5E
1486386355.67,62507,11.38,72740.0,-2.29,-35.13,-36.43,0,*59
1486386356.91,62508,11.38,72736.5,-2.29,-35.29,-36.67,0,*59
1486386358.15,62509,11.38,72740.8,-2.29,-35.53,-36.85,0,*59
1486386359.38,62510,11.38,72738.5,-2.27,-35.47,-36.79,0,*59
1486386360.61,62511,11.38,72736.5,-2.31,-35.53,-36.97,0,*5A
1486386361.85,62512,11.38,72738.8,-2.29,-35.29,-36.67,0,*52
1486386363.11,62513,11.38,72736.0,-2.27,-34.95,-36.37,0,*5E
1486386364.37,62514,11.38,72742.8,-2.29,-35.29,-36.61,0,*52
1486386365.59,62515,11.38,72738.3,-2.27,-35.47,-36.73,0,*56
1486386366.85,62516,11.38,72738.8,-2.29,-35.29,-36.61,0,*50
1486386368.11,62517,11.38,72736.5,-2.29,-35.35,-36.67,0,*5A
1486386369.36,62518,11.38,72738.3,-2.29,-35.13,-36.37,0,*54
1486386370.58,62519,11.38,72738.0,-2.27,-35.29,-36.55,0,*56
1486386371.79,62520,11.38,72738.8,-2.27,-35.13,-36.31,0,*57
1486386373.02,62521,11.38,72738.5,-2.27,-35.41,-36.55,0,*53
1486386374.29,62522,11.38,72738.5,-2.27,-35.07,-36.37,0,*56
1486386375.52,62523,11.38,72742.3,-2.27,-35.29,-36.61,0,*58
1486386376.75,62524,11.38,72736.0,-2.23,-35.47,-36.79,0,*5A
1486386378.0,62525,11.38,72736.5,-2.23,-35.65,-36.79,0,*5B
1486386379.21,62526,11.38,72742.5,-2.23,-36.01,-37.45,0,*57
1486386380.42,62527,11.38,72736.0,-2.27,-36.01,-37.33,0,*53
1486386381.62,62528,11.38,72738.3,-2.27,-36.19,-37.33,0,*55
1486386382.85,62529,11.38,72740.0,-2.29,-36.01,-37.33,0,*53
1486386384.12,62530,11.38,72734.8,-2.27,-35.95,-37.09,0,*52
1486386385.33,62531,11.38,72736.8,-2.27,-35.13,-36.31,0,*57
1486386386.59,62532,11.38,72738.5,-2.27,-35.07,-36.37,0,*57
1486386387.84,62533,11.38,72736.8,-2.27,-34.71,-35.95,0,*5D
1486386389.05,62534,11.38,72738.8,-2.27,-34.89,-36.19,0,*5A
1486386390.27,62535,11.38,72740.3,-2.27,-35.29,-36.55,0,*58
1486386391.48,62536,11.38,72738.0,-2.23,-35.13,-36.31,0,*54
1486386392.71,62537,11.38,72738.0,-2.23,-34.89,-36.13,0,*57
1486386393.95,62538,11.38,72740.5,-2.23,-34.83,-36.19,0,*58
1486386395.19,62539,11.38,72738.0,-2.21,-34.59,-35.71,0,*51
1486386396.42,62540,11.38,72738.8,-2.21,-34.41,-35.71,0,*56
1486386397.66,62541,11.38,72740.0,-2.21,-34.47,-35.71,0,*51
1486386398.96,62542,11.38,72742.3,-2.21,-34.65,-35.95,0,*58
1486386400.19,62543,11.38,72742.0,-2.19,-35.23,-36.31,0,*5C
1486386401.45,62544,11.38,72736.5,-2.17,-34.95,-36.19,0,*53
1486386402.7,62545,11.38,72742.8,-2.19,-35.23,-36.49,0,*55
1486386403.93,62546,11.38,72738.5,-2.17,-35.17,-36.31,0,*50
1486386405.16,62547,11.38,72738.3,-2.19,-35.01,-36.13,0,*58
1486386406.42,62548,11.38,72738.8,-2.17,-34.95,-36.07,0,*50
1486386407.66,62549,11.38,72742.0,-2.17,-35.29,-36.43,0,*57
1486386408.93,62550,11.38,72736.8,-2.17,-35.35,-36.61,0,*52
1486386410.17,62551,11.38,72738.0,-2.17,-35.29,-36.43,0,*5E
1486386411.39,62552,11.38,72738.5,-2.17,-35.13,-36.19,0,*5B
1486386412.64,62553,11.38,72736.8,-2.17,-35.35,-36.43,0,*51
1486386413.9,62554,11.38,72738.3,-2.17,-35.17,-36.25,0,*56
1486386415.13,62555,11.38,72740.0,-2.17,-35.13,-36.19,0,*5C
1486386416.38,62556,11.38,72740.0,-2.13,-35.07,-36.19,0,*5E
1486386417.59,62557,11.38,72736.5,-2.15,-35.13,-36.19,0,*5C
1486386418.86,62558,11.38,72736.0,-2.13,-34.95,-36.01,0,*53
1486386420.15,62559,11.38,72738.8,-2.13,-34.83,-35.95,0,*5B
1486386421.43,62560,11.38,72738.0,-2.13,-35.23,-36.13,0,*57
1486386422.64,62561,11.38,72738.8,-2.15,-35.29,-36.31,0,*5A
1486386423.9,62562,11.38,72740.3,-2.13,-35.07,-36.19,0,*59
1486386425.19,62563,11.38,72740.8,-2.13,-35.07,-36.13,0,*52
1486386426.41,62564,11.38,72740.5,-2.11,-35.17,-36.19,0,*5C
1486386427.7,62565,11.38,72740.0,-2.11,-35.07,-36.13,0,*56
1486386428.96,62566,11.38,72736.8,-2.11,-35.01,-36.13,0,*53
1486386430.19,62567,11.38,72738.8,-2.11,-35.17,-36.19,0,*5F
1486386431.42,62568,11.38,72738.5,-2.11,-35.17,-36.31,0,*5A
1486386432.69,62569,11.38,72736.0,-2.11,-35.35,-36.37,0,*5D
1486386433.92,62570,11.38,72740.3,-2.09,-35.35,-36.31,0,*5A
1486386435.17,62571,11.38,72736.8,-2.09,-35.35,-36.49,0,*54
1486386436.42,62572,11.38,72742.0,-2.09,-35.41,-36.49,0,*54
1486386437.67,62573,11.38,72736.3,-2.09,-35.35,-36.37,0,*5F
1486386438.9,62574,11.38,72740.0,-2.09,-35.53,-36.55,0,*5C
1486386440.14,62575,11.38,72738.3,-2.09,-35.41,-36.37,0,*5A
1486386441.42,62576,11.38,72740.0,-2.11,-35.41,-36.49,0,*59
1486386442.67,62577,11.38,72742.5,-2.09,-35.41,-36.49,0,*51
1486386443.91,62578,11.38,72738.5,-2.09,-35.41,-36.37,0,*57
1486386445.16,62579,11.38,72740.3,-2.09,-35.53,-36.49,0,*5C
1486386446.41,62580,11.38,72744.5,-2.09,-35.41,-36.49,0,*59
1486386447.65,62581,11.38,72740.0,-2.07,-35.29,-36.43,0,*52
1486386448.91,62582,11.38,72742.8,-2.07,-35.29,-36.25,0,*51
1486386450.15,62583,11.38,72740.3,-2.07,-35.29,-36.31,0,*55
1486386451.38,62584,11.38,72740.5,-2.05,-35.35,-36.31,0,*5D
1486386452.59,62585,11.38,72742.3,-2.05,-35.29,-36.31,0,*51
1486386453.82,62586,11.38,72738.8,-2.05,-35.35,-36.43,0,*5A
1486386455.1,62587,11.38,72740.3,-2.07,-35.53,-36.49,0,*53
1486386456.36,62588,11.38,72738.0,-2.07,-35.35,-36.31,0,*53
1486386457.59,62589,11.38,72740.5,-2.07,-35.47,-36.43,0,*52
1486386458.85,62590,11.38,72738.8,-2.07,-35.47,-36.49,0,*50
1486386460.08,62591,11.38,72740.8,-2.05,-35.35,-36.31,0,*59
1486386461.34,62592,11.38,72742.0,-2.07,-35.47,-36.49,0,*52
1486386462.55,62593,11.38,72740.5,-2.05,-35.47,-36.43,0,*5B
1486386463.79,62594,11.38,72736.0,-2.07,-35.47,-36.43,0,*5E
1486386465.02,62595,11.38,72738.5,-2.05,-35.47,-36.49,0,*57
1486386466.27,62596,11.38,72740.3,-2.05,-35.53,-36.61,0,*5B
1486386467.5,62597,11.38,72742.0,-2.05,-35.47,-36.49,0,*55
1486386468.7,62598,11.38,72742.3,-2.01,-35.59,-36.43,0,*5B
1486386469.93,62599,11.38,72742.8,-2.01,-35.59,-36.61,0,*5A
1486386471.16,62600,11.38,72740.8,-2.01,-35.65,-36.55,0,*51
1486386472.39,62601,11.38,72740.8,-2.05,-35.71,-36.61,0,*56
1486386473.61,62602,11.38,72738.8,-2.01,-35.47,-36.37,0,*57
1486386474.84,62603,11.38,72742.3,-2.01,-35.65,-36.43,0,*55
1486386476.05,62604,11.38,72742.8,-2.01,-35.59,-36.55,0,*5A
1486386477.25,62605,11.38,72742.8,-2.01,-35.59,-36.55,0,*5B
1486386478.49,62606,11.38,72738.8,-2.05,-35.35,-36.31,0,*54
1486386479.72,62607,11.38,72742.3,-2.01,-35.65,-36.55,0,*56
1486386480.94,62608,11.38,72740.3,-2.01,-35.59,-36.61,0,*51
1486386482.17,62609,11.38,72736.3,-2.01,-35.65,-36.55,0,*58
1486386483.45,62610,11.38,72736.5,-1.99,-35.41,-36.25,0,*53
1486386484.71,62611,11.38,72742.8,-1.99,-35.77,-36.61,0,*57
1486386485.96,62612,11.38,72742.0,-2.01,-35.41,-36.37,0,*50
1486386487.19,62613,11.38,72740.3,-2.01,-35.77,-36.61,0,*57
1486386488.43,62614,11.38,72740.3,-2.01,-35.41,-36.37,0,*56
1486386489.66,62615,11.38,72740.0,-2.01,-35.65,-36.55,0,*55
1486386490.87,62616,11.38,72744.0,-1.97,-35.71,-36.55,0,*5F
1486386492.13,62617,11.38,72742.8,-1.99,-36.07,-36.91,0,*5A
1486386493.33,62618,11.38,72740.8,-2.01,-36.01,-36.97,0,*57
1486386494.59,62619,11.38,72740.5,-1.99,-36.19,-37.09,0,*5B
1486386495.82,62620,11.38,72740.3,-2.01,-36.07,-37.09,0,*5C
1486386497.05,62621,11.38,72742.5,-2.01,-36.19,-37.09,0,*52